| time (UTC) | temp F | wind direction | speed MPH | gust MPH | rain 1hr in | rain 24hr in | rain mn in | humidity % | barometer mb |
| 20260905123055 | 93 | 105 | 5.0 | 10.0 | 0.00 | 0.00 | 0.00 | 34 | 1025.4 |
| 20260905121529 | 93 | 142 | 5.0 | 10.0 | 0.00 | 0.00 | 0.00 | 34 | 1025.5 |
| 20260905120029 | 93 | 191 | 5.0 | 10.0 | 0.00 | 0.00 | 0.00 | 34 | 1025.6 |
| 20260905114525 | 93 | 191 | 4.0 | 11.0 | 0.00 | 0.00 | 0.00 | 35 | 1025.6 |
| 20260905113028 | 93 | 110 | 2.0 | 10.0 | 0.00 | 0.00 | 0.00 | 34 | 1025.8 |
| 20260905111525 | 93 | 108 | 4.0 | 11.0 | 0.00 | 0.00 | 0.00 | 33 | 1025.8 |
| 20260905110022 | 93 | 153 | 5.0 | 11.0 | 0.00 | 0.00 | 0.00 | 35 | 1025.6 |
| 20260905104521 | 94 | 125 | 4.0 | 8.0 | 0.00 | 0.00 | 0.00 | 35 | 1025.6 |
| 20260905103024 | 94 | 72 | 1.0 | 8.0 | 0.00 | 0.00 | 0.00 | 34 | 1025.7 |
| 20260905101518 | 93 | 118 | 0.0 | 8.0 | 0.00 | 0.00 | 0.00 | 40 | 1025.7 |
| 20260905100017 | 92 | 121 | 4.0 | 7.0 | 0.00 | 0.00 | 0.00 | 41 | 1025.8 |
| 20260905094517 | 93 | 104 | 2.0 | 6.0 | 0.00 | 0.00 | 0.00 | 40 | 1025.7 |
| 20260905093015 | 93 | 5 | 0.0 | 1.0 | 0.00 | 0.00 | 0.00 | 39 | 1025.7 |
| 20260905091513 | 92 | 131 | 0.0 | 6.0 | 0.00 | 0.00 | 0.00 | 41 | 1025.7 |
| 20260905090010 | 92 | 158 | 0.0 | 0.0 | 0.00 | 0.00 | 0.00 | 41 | 1025.5 |
| 20260905084507 | 91 | 158 | 0.0 | 0.0 | 0.00 | 0.00 | 0.00 | 46 | 1025.4 |
| 20260905083003 | 89 | 158 | 0.0 | 0.0 | 0.00 | 0.00 | 0.00 | 50 | 1025.3 |
| 20260905081559 | 86 | 158 | 0.0 | 0.0 | 0.00 | 0.00 | 0.00 | 56 | 1025.2 |
| 20260905080134 | 85 | 158 | 0.0 | 0.0 | 0.00 | 0.00 | 0.00 | 59 | 1025.1 |
| 20260905074551 | 82 | 158 | 0.0 | 0.0 | 0.00 | 0.00 | 0.00 | 63 | 1025.1 |
| 20260905073047 | 78 | 158 | 0.0 | 0.0 | 0.00 | 0.00 | 0.00 | 69 | 1025.0 |
| 20260905071546 | 76 | 158 | 0.0 | 0.0 | 0.00 | 0.00 | 0.00 | 71 | 1025.0 |
| 20260905070051 | 74 | 276 | 0.0 | 0.0 | 0.00 | 0.00 | 0.00 | 73 | 1024.9 |
| 20260905064551 | 73 | 276 | 0.0 | 0.0 | 0.00 | 0.00 | 0.00 | 77 | 1024.7 |
| 20260905063043 | 71 | 276 | 0.0 | 0.0 | 0.00 | 0.00 | 0.00 | 79 | 1024.6 |
| 20260905061540 | 70 | 276 | 0.0 | 0.0 | 0.00 | 0.00 | 0.00 | 82 | 1024.5 |
| 20260905060047 | 69 | 276 | 0.0 | 0.0 | 0.00 | 0.00 | 0.00 | 82 | 1024.5 |
| 20260905054538 | 69 | 276 | 0.0 | 0.0 | 0.00 | 0.00 | 0.00 | 82 | 1024.3 |
| 20260905053032 | 68 | 276 | 0.0 | 0.0 | 0.00 | 0.00 | 0.00 | 82 | 1024.1 |
| 20260905051531 | 69 | 276 | 0.0 | 0.0 | 0.00 | 0.00 | 0.00 | 82 | 1023.9 |
| 20260905050028 | 68 | 276 | 0.0 | 0.0 | 0.00 | 0.00 | 0.00 | 81 | 1024.0 |
| 20260905044536 | 68 | 276 | 0.0 | 0.0 | 0.00 | 0.00 | 0.00 | 82 | 1024.0 |
| 20260905043028 | 68 | 276 | 0.0 | 0.0 | 0.00 | 0.00 | 0.00 | 82 | 1023.8 |
| 20260905041525 | 68 | 276 | 0.0 | 0.0 | 0.00 | 0.00 | 0.00 | 82 | 1023.6 |
| 20260905040034 | 68 | 276 | 0.0 | 0.0 | 0.00 | 0.00 | 0.00 | 82 | 1023.6 |
| 20260905034523 | 69 | 276 | 0.0 | 0.0 | 0.00 | 0.00 | 0.00 | 83 | 1023.7 |
| 20260905033022 | 69 | 276 | 0.0 | 0.0 | 0.00 | 0.00 | 0.00 | 85 | 1023.7 |
| 20260905031533 | 69 | 276 | 0.0 | 0.0 | 0.00 | 0.00 | 0.00 | 86 | 1023.4 |
| 20260905030020 | 69 | 276 | 0.0 | 0.0 | 0.00 | 0.00 | 0.00 | 85 | 1023.5 |
| 20260905024520 | 69 | 276 | 0.0 | 0.0 | 0.00 | 0.00 | 0.00 | 84 | 1023.4 |
| 20260905023020 | 70 | 276 | 0.0 | 0.0 | 0.00 | 0.00 | 0.00 | 85 | 1023.5 |
| 20260905021530 | 70 | 276 | 0.0 | 0.0 | 0.00 | 0.00 | 0.00 | 86 | 1023.4 |
| 20260905020015 | 70 | 275 | 0.0 | 0.0 | 0.00 | 0.00 | 0.00 | 88 | 1023.4 |
| 20260905014513 | 71 | 275 | 0.0 | 1.0 | 0.00 | 0.00 | 0.00 | 89 | 1023.4 |
| 20260905013011 | 71 | 276 | 0.0 | 0.0 | 0.00 | 0.00 | 0.00 | 90 | 1023.5 |
| 20260905011508 | 72 | 276 | 0.0 | 0.0 | 0.00 | 0.00 | 0.00 | 89 | 1023.5 |
| 20260905010006 | 73 | 276 | 0.0 | 0.0 | 0.00 | 0.00 | 0.00 | 87 | 1023.5 |
| 20260905004503 | 74 | 276 | 0.0 | 0.0 | 0.00 | 0.00 | 0.00 | 88 | 1023.5 |
| 20260905003101 | 74 | 275 | 0.0 | 0.0 | 0.00 | 0.00 | 0.00 | 88 | 1023.7 |
| 20260905001608 | 75 | 276 | 0.0 | 0.0 | 0.00 | 0.00 | 0.00 | 87 | 1023.7 |
| 20260905000057 | 75 | 276 | 0.0 | 1.0 | 0.00 | 0.00 | 0.00 | 86 | 1023.7 |
| 20260904234555 | 76 | 275 | 0.0 | 0.0 | 0.00 | 0.00 | 0.00 | 85 | 1023.7 |
| 20260904233153 | 76 | 276 | 0.0 | 0.0 | 0.00 | 0.00 | 0.00 | 85 | 1023.8 |
| 20260904231550 | 76 | 276 | 0.0 | 0.0 | 0.00 | 0.00 | 0.00 | 85 | 1023.8 |
| 20260904230049 | 77 | 276 | 0.0 | 0.0 | 0.00 | 0.00 | 0.00 | 84 | 1023.9 |
| 20260904224546 | 77 | 276 | 0.0 | 1.0 | 0.00 | 0.00 | 0.00 | 83 | 1023.9 |
| 20260904223045 | 77 | 276 | 0.0 | 1.0 | 0.00 | 0.00 | 0.00 | 83 | 1023.9 |
| 20260904221543 | 78 | 276 | 0.0 | 0.0 | 0.00 | 0.00 | 0.00 | 83 | 1023.9 |
| 20260904220047 | 79 | 276 | 0.0 | 3.0 | 0.00 | 0.00 | 0.00 | 81 | 1023.8 |
| 20260904214539 | 79 | 275 | 1.0 | 2.0 | 0.00 | 0.00 | 0.00 | 82 | 1023.7 |
| 20260904213043 | 79 | 275 | 0.0 | 4.0 | 0.00 | 0.00 | 0.00 | 82 | 1023.8 |
| 20260904211538 | 79 | 274 | 0.0 | 2.0 | 0.00 | 0.00 | 0.00 | 83 | 1023.9 |
| 20260904210037 | 78 | 133 | 0.0 | 1.0 | 0.00 | 0.00 | 0.00 | 84 | 1023.9 |
| 20260904204536 | 78 | 132 | 0.0 | 1.0 | 0.00 | 0.00 | 0.00 | 86 | 1024.0 |
| 20260904203042 | 78 | 132 | 0.0 | 1.0 | 0.00 | 0.00 | 0.00 | 86 | 1024.0 |
| 20260904201537 | 78 | 132 | 0.0 | 0.0 | 0.00 | 0.00 | 0.00 | 86 | 1023.9 |
| 20260904200034 | 79 | 132 | 0.0 | 1.0 | 0.00 | 0.00 | 0.00 | 86 | 1024.0 |
| 20260904194536 | 78 | 133 | 0.0 | 0.0 | 0.00 | 0.00 | 0.00 | 86 | 1023.9 |
| 20260904193034 | 79 | 132 | 0.0 | 0.0 | 0.00 | 0.00 | 0.00 | 85 | 1023.9 |
| 20260904191536 | 80 | 133 | 0.0 | 0.0 | 0.00 | 0.00 | 0.00 | 83 | 1023.8 |
| 20260904190031 | 81 | 132 | 0.0 | 0.0 | 0.00 | 0.00 | 0.00 | 83 | 1023.6 |
| 20260904184539 | 81 | 133 | 0.0 | 0.0 | 0.00 | 0.00 | 0.00 | 82 | 1023.4 |
| 20260904183031 | 82 | 132 | 0.0 | 0.0 | 0.00 | 0.00 | 0.00 | 81 | 1023.2 |
| 20260904181535 | 82 | 132 | 0.0 | 1.0 | 0.00 | 0.00 | 0.00 | 79 | 1022.8 |
| 20260904180029 | 83 | 119 | 2.0 | 6.0 | 0.00 | 0.00 | 0.00 | 77 | 1022.8 |
| 20260904174529 | 84 | 245 | 0.0 | 4.0 | 0.00 | 0.00 | 0.00 | 75 | 1022.8 |
| 20260904173029 | 85 | 138 | 1.0 | 4.0 | 0.00 | 0.00 | 0.00 | 72 | 1022.7 |
| 20260904171538 | 86 | 69 | 0.0 | 4.0 | 0.00 | 0.00 | 0.00 | 68 | 1022.5 |
| 20260904170027 | 87 | 115 | 0.0 | 6.0 | 0.00 | 0.00 | 0.00 | 66 | 1022.3 |
| 20260904164526 | 88 | 97 | 0.0 | 6.0 | 0.00 | 0.00 | 0.00 | 64 | 1022.1 |
| 20260904163028 | 88 | 134 | 1.0 | 5.0 | 0.00 | 0.00 | 0.00 | 65 | 1022.2 |
| 20260904161526 | 88 | 115 | 2.0 | 7.0 | 0.00 | 0.00 | 0.00 | 65 | 1022.2 |
| 20260904160030 | 90 | 159 | 3.0 | 7.0 | 0.00 | 0.00 | 0.00 | 63 | 1022.2 |
| 20260904154524 | 90 | 114 | 2.0 | 9.0 | 0.00 | 0.00 | 0.00 | 62 | 1022.1 |
| 20260904153028 | 91 | 130 | 2.0 | 6.0 | 0.00 | 0.00 | 0.00 | 60 | 1022.0 |
| 20260904151524 | 93 | 214 | 0.0 | 7.0 | 0.00 | 0.00 | 0.00 | 59 | 1021.9 |
| 20260904150036 | 94 | 123 | 1.0 | 7.0 | 0.00 | 0.00 | 0.00 | 57 | 1022.0 |
| 20260904144521 | 94 | 128 | 1.0 | 8.0 | 0.00 | 0.00 | 0.00 | 54 | 1021.8 |
| 20260904143031 | 94 | 116 | 2.0 | 12.0 | 0.00 | 0.00 | 0.00 | 51 | 1021.9 |
| 20260904141523 | 96 | 41 | 3.0 | 7.0 | 0.00 | 0.00 | 0.00 | 49 | 1021.8 |
| 20260904140024 | 96 | 80 | 4.0 | 8.0 | 0.00 | 0.00 | 0.00 | 47 | 1021.9 |
| 20260904134518 | 96 | 118 | 4.0 | 14.0 | 0.00 | 0.00 | 0.00 | 48 | 1021.9 |
| 20260904133025 | 95 | 108 | 5.0 | 12.0 | 0.00 | 0.00 | 0.00 | 47 | 1021.9 |
| 20260904131515 | 96 | 122 | 5.0 | 13.0 | 0.00 | 0.00 | 0.00 | 47 | 1022.0 |
| 20260904130013 | 96 | 144 | 5.0 | 10.0 | 0.00 | 0.00 | 0.00 | 49 | 1022.1 |
| 20260904124512 | 95 | 165 | 3.0 | 10.0 | 0.00 | 0.00 | 0.00 | 51 | 1022.2 |